Weather observations for the past three days for
Orange Municipal Airport
Imperial (Metric)
Date Time (edt) Wind (mph) Vis. (mi.) Weather Sky Cond. Temperature (ºF) Relative Humidity Wind Chill (°F) Heat Index (°F) Pressure Precipitation (in)
Air Dwpt 6 hour altimeter (in) sea level (mb) 1 hr 3 hr 6 hr
Max. Min.
15 03:52 Calm 10.00 NULL NULL 68 64.9 90% 29.91 1012.6
15 02:52 Calm 10.00 NULL NULL 66.9 64.9 93% 29.92 1012.7
15 01:52 Calm 10.00 NULL NULL 68 64.9 80.1 68 90% 29.93 1013.3
15 00:52 Calm 10.00 NULL NULL 69.1 66 90% 29.95 1013.8
14 23:52 Calm 10.00 NULL NULL 70 66.9 90% 29.95 1013.9
14 22:52 Calm 10.00 NULL NULL 72 68 87% 29.95 1013.7
14 21:52 Calm 10.00 NULL NULL 73 68 84% 29.96 1014.0
14 20:52 Calm 10.00 NULL NULL 75 68 79% 76 29.95 1013.8
14 19:52 W 3 10.00 NULL NULL 80.1 69.1 90 80.1 69% 83 29.95 1013.9
14 18:52 W 5 10.00 NULL NULL 86 59 40% 85 29.95 1013.7
14 17:52 SW 7 10.00 NULL NULL 88 57.9 36% 87 29.95 1013.7
14 16:52 Vrbl 7 10.00 NULL NULL 89.1 57 34% 88 29.95 1013.8
14 15:52 Calm 10.00 NULL NULL 88 57.9 36% 87 29.97 1014.5
14 14:52 W 9 10.00 NULL NULL 88 59 38% 87 29.98 1015.0
14 13:52 Vrbl 5 10.00 NULL NULL 88 57 88 69.1 35% 87 30 1015.4
14 12:52 SW 6 10.00 NULL NULL 87.1 57.9 37% 86 30.03 1016.5
14 11:52 Calm 10.00 NULL NULL 84.9 62.1 46% 85 30.04 1017.1
14 10:52 Calm 10.00 NULL NULL 82.9 64.9 55% 85 30.06 1017.5
14 09:52 N 3 10.00 NULL NULL 80.1 66.9 64% 82 30.06 1017.6
14 08:52 Calm 10.00 NULL NULL 77 68 74% 79 30.07 1018.1
14 07:52 Calm 4.00 Fog/Mist NULL 69.1 68 69.1 66 96% 30.08 1018.2
14 06:52 Calm 0.15 Fog VV002 68 66.9 96% 30.08 1018.2
14 05:52 Calm 8.00 NULL NULL 66.9 64.9 93% 30.07 1017.9
14 04:52 Calm 1.25 Fog/Mist NULL 66.9 66 97% 30.07 1018.0
14 03:52 Calm 0.25 Fog VV001 66.9 66.9 100% 30.06 1017.6
14 02:52 Calm 7.00 NULL NULL 69.1 66.9 93% 30.06 1017.4
14 01:52 Calm 3.00 Fog/Mist NULL 69.1 66.9 81 69.1 93% 30.06 1017.7
14 00:52 Calm 10.00 NULL NULL 71.1 68 90% 30.08 1018.2
13 23:52 Calm 10.00 NULL NULL 72 69.1 91% 30.08 1018.3
13 22:52 Calm 10.00 NULL NULL 73 70 90% 30.08 1018.3
13 21:52 Calm 10.00 NULL NULL 75.9 70 82% 77 30.08 1018.2
13 20:52 S 3 10.00 NULL NULL 78.1 70 76% 80 30.07 1017.8
13 19:52 S 7 10.00 NULL NULL 81 71.1 87.1 81 72% 85 30.07 1018.0
13 18:52 S 7 10.00 NULL NULL 82.9 71.1 67% 88 30.06 1017.6
13 17:52 S 12 10.00 NULL NULL 84.9 71.1 63% 90 30.05 1017.4
13 16:52 S 8 10.00 NULL NULL 86 69.1 57% 90 30.06 1017.6
13 15:52 S 12 10.00 NULL NULL 86 69.1 57% 90 30.08 1018.2
13 14:52 SW 12 G 17 10.00 NULL NULL 86 69.1 57% 90 30.09 1018.6
13 13:52 S 10 10.00 NULL NULL 84.9 69.1 84.9 75 59% 89 30.11 1019.3
13 12:52 S 9 10.00 NULL NULL 82.9 69.1 63% 87 30.13 1020.1
13 11:52 SE 8 10.00 NULL NULL 82.9 70 65% 87 30.15 1020.6
13 10:52 S 8 10.00 NULL NULL 80.1 70 71% 83 30.17 1021.3
13 09:52 S 12 10.00 NULL NULL 77 71.1 82% 79 30.18 1021.5
13 08:52 S 7 10.00 NULL NULL 75.9 71.1 85% 76 30.18 1021.8
13 07:52 SW 7 10.00 NULL NULL 75 72 77 75 90% 74 30.18 1021.7
13 06:52 S 5 10.00 NULL NULL 75 72 90% 74 30.19 1022.0
13 05:52 S 5 8.00 Light Rain NULL 75 73 94% 73 30.18 1021.6
13 04:52 S 3 10.00 NULL NULL 75 73 94% 73 30.17 1021.4
13 03:52 S 3 7.00 Light Rain NULL 75.9 72 88% 76 30.16 1021.1
13 02:52 S 3 10.00 NULL NULL 75.9 72 88% 76 30.16 1021.1
13 01:52 S 6 10.00 NULL NULL 75.9 72 81 75.9 88% 76 30.18 1021.5
13 00:52 S 9 10.00 NULL NULL 75.9 72 88% 76 30.19 1021.9
12 23:52 S 7 10.00 NULL NULL 75.9 72 88% 76 30.19 1022.0
12 22:52 S 9 10.00 NULL NULL 77 72 85% 78 30.19 1022.1
12 21:52 S 7 10.00 NULL NULL 77 71.1 82% 79 30.19 1021.9
12 20:52 S 7 10.00 NULL NULL 79 72 79% 82 30.18 1021.5
12 19:52 S 8 10.00 NULL NULL 81 72 87.1 81 74% 85 30.17 1021.2
12 18:52 S 10 10.00 NULL NULL 82.9 71.1 67% 88 30.15 1020.8
12 17:52 S 13 10.00 NULL NULL 84 70 63% 88 30.14 1020.5
12 16:52 S 13 10.00 NULL NULL 84 69.1 61% 88 30.15 1020.7
12 15:52 S 12 10.00 NULL NULL 86 68 55% 89 30.15 1020.7
12 14:52 S 10 10.00 NULL NULL 86 68 55% 89 30.16 1021.1
12 13:52 S 10 10.00 NULL NULL 84.9 68 86 73.9 57% 88 30.17 1021.2
12 12:52 S 10 G 18 10.00 NULL NULL 86 68 55% 89 30.17 1021.5
12 11:52 S 12 10.00 Mostly Cloudy BKN032 BKN041 82 66.9 60% 85 30.18 1021.6
12 10:52 SW 10 G 17 10.00 NULL NULL 81 66 61% 83 30.16 1021.0
12 09:52 Vrbl 3 10.00 NULL NULL 79 68 69% 81 30.17 1021.4
12 08:52 S 3 10.00 NULL NULL 77 68 74% 79 30.18 1021.7
12 07:52 S 5 10.00 NULL NULL 73.9 68 73.9 64.9 82% 30.17 1021.4
12 06:52 Calm 10.00 NULL NULL 70 66 87% 30.16 1020.8
12 05:52 Calm 10.00 NULL NULL 66 64 93% 30.14 1020.2
12 04:52 Calm 10.00 NULL NULL 66 64 93% 30.12 1019.6
Date Time (edt) Wind (mph) Vis. (mi.) Weather Sky Cond. Air Dwpt Max. Min. Relative Humidity Wind Chill (°F) Heat Index (°F) altimeter (in) sea level (mb) 1 hr 3 hr 6 hr
6 hour
Temperature (ºF) Pressure Precipitation (in)